TimeCDT,TemperatureF,Dew PointF,Humidity,Sea Level PressureIn,VisibilityMPH,Wind Direction,Wind SpeedMPH,Gust SpeedMPH,PrecipitationIn,Events,Conditions,WindDirDegrees,DateUTC
12:15 AM,50.2,46.8,88,29.92,5.0,South,4.6,-,N/A,,Overcast,180,2013-03-31 05:15:00
12:35 AM,50.0,46.8,89,29.92,4.0,Calm,Calm,-,N/A,,Overcast,0,2013-03-31 05:35:00
12:55 AM,50.2,47.3,90,29.91,4.0,South,3.5,-,N/A,,Overcast,190,2013-03-31 05:55:00
1:15 AM,50.2,47.3,90,29.91,4.0,SSW,3.5,-,N/A,,Overcast,200,2013-03-31 06:15:00
1:35 AM,50.2,47.3,90,29.91,3.0,Calm,Calm,-,N/A,,Overcast,0,2013-03-31 06:35:00
1:55 AM,50.4,47.5,90,29.90,3.0,Calm,Calm,-,N/A,,Overcast,0,2013-03-31 06:55:00
2:15 AM,49.8,46.9,90,29.89,2.5,Calm,Calm,-,N/A,,Overcast,0,2013-03-31 07:15:00
2:35 AM,50.0,47.5,91,29.89,2.5,WSW,3.5,-,N/A,,Overcast,240,2013-03-31 07:35:00
2:55 AM,50.4,47.8,91,29.89,2.5,WSW,6.9,-,N/A,,Overcast,250,2013-03-31 07:55:00
3:15 AM,50.5,47.8,90,29.89,2.5,West,6.9,-,N/A,,Overcast,260,2013-03-31 08:15:00
3:35 AM,50.4,47.7,90,29.88,2.5,West,5.8,-,N/A,,Overcast,260,2013-03-31 08:35:00
3:55 AM,50.4,47.8,91,29.87,2.5,WSW,5.8,-,N/A,,Overcast,250,2013-03-31 08:55:00
4:15 AM,50.4,47.8,91,29.88,3.0,West,8.1,-,N/A,,Overcast,260,2013-03-31 09:15:00
4:35 AM,50.4,47.8,91,29.89,3.0,West,6.9,-,N/A,,Overcast,270,2013-03-31 09:35:00
4:55 AM,50.9,48.2,90,29.89,4.0,West,6.9,-,N/A,,Overcast,280,2013-03-31 09:55:00
5:15 AM,50.0,47.3,90,29.89,4.0,WNW,6.9,-,N/A,,Mostly Cloudy,290,2013-03-31 10:15:00
5:35 AM,50.0,47.5,91,29.89,4.0,NW,6.9,-,N/A,,Scattered Clouds,310,2013-03-31 10:35:00
5:55 AM,49.8,47.1,90,29.88,5.0,WNW,5.8,-,N/A,,Scattered Clouds,300,2013-03-31 10:55:00
6:15 AM,47.7,44.8,90,29.89,3.0,West,5.8,-,N/A,,Mostly Cloudy,270,2013-03-31 11:15:00
6:35 AM,47.7,45.1,91,29.89,2.5,WNW,3.5,-,N/A,,Scattered Clouds,290,2013-03-31 11:35:00
6:45 AM,48.2,44.6,87,29.89,3.0,WNW,4.6,-,N/A,,Scattered Clouds,290,2013-03-31 11:45:00
6:55 AM,48.2,45.5,90,29.90,3.0,West,6.9,-,N/A,,Mostly Cloudy,280,2013-03-31 11:55:00
7:45 AM,48.2,46.4,93,29.91,2.0,Variable,3.5,-,N/A,,Overcast,0,2013-03-31 12:45:00
8:45 AM,50.0,48.2,94,29.91,2.5,Variable,3.5,-,N/A,,Overcast,0,2013-03-31 13:45:00
9:45 AM,53.6,50.0,88,29.91,5.0,WNW,9.2,-,N/A,,Mostly Cloudy,300,2013-03-31 14:45:00
10:25 AM,55.4,50.0,82,29.91,7.0,WNW,9.2,-,N/A,,Scattered Clouds,300,2013-03-31 15:25:00
10:45 AM,57.2,50.0,77,29.91,10.0,WNW,9.2,-,N/A,,Partly Cloudy,300,2013-03-31 15:45:00
11:45 AM,60.8,46.4,59,29.88,10.0,West,9.2,-,N/A,,Clear,270,2013-03-31 16:45:00
12:45 PM,64.4,48.2,56,29.88,10.0,Variable,3.5,-,N/A,,Scattered Clouds,0,2013-03-31 17:45:00
1:45 PM,64.4,46.4,52,29.88,10.0,West,16.1,-,N/A,,Scattered Clouds,280,2013-03-31 18:45:00
2:50 PM,66.2,41.0,40,29.86,10.0,West,11.5,-,N/A,,Scattered Clouds,270,2013-03-31 19:50:00
3:50 PM,68.0,33.8,28,29.85,10.0,WSW,13.8,-,N/A,,Mostly Cloudy,240,2013-03-31 20:50:00
5:50 PM,66.2,33.8,30,29.85,10.0,West,13.8,20.7,N/A,,Mostly Cloudy,280,2013-03-31 22:50:00
6:50 PM,64.4,35.6,34,29.86,10.0,West,16.1,25.3,N/A,,Scattered Clouds,280,2013-03-31 23:50:00
8:50 PM,59.0,35.6,42,29.90,10.0,NNW,9.2,-,N/A,,Scattered Clouds,330,2013-04-01 01:50:00
9:50 PM,57.2,37.4,48,29.92,10.0,NW,11.5,-,N/A,,Clear,320,2013-04-01 02:50:00
10:15 PM,55.2,37.2,51,29.93,10.0,NW,4.6,-,N/A,,Clear,320,2013-04-01 03:15:00
10:35 PM,55.4,36.5,49,29.93,10.0,NW,5.8,-,N/A,,Clear,310,2013-04-01 03:35:00
10:55 PM,55.2,33.3,43,29.94,10.0,NNW,6.9,-,N/A,,Clear,330,2013-04-01 03:55:00
11:15 PM,54.3,30.6,40,29.95,10.0,NW,9.2,-,N/A,,Clear,320,2013-04-01 04:15:00
11:55 PM,51.8,29.7,43,29.96,10.0,NNW,8.1,-,N/A,,Clear,330,2013-04-01 04:55:00